Location: ??
(35.5090°N, 139.6783°E)
Time: 18:43:38
(UTC+00:00)

Delta 2 Rocket - Pass Details

Date: 08 November 2025
Orbit: 356 x 508 km, 35.6° (Epoch: 08 December)

Event Time Altitude Azimuth Distance (km) Brightness Sun altitude
Rises 08:24:48 0° 257° (WSW) 2,637 9.2 -9.5°
Reaches altitude 10° 08:27:04 10° 256° (WSW) 1,743 7.5 -10.0°
Maximum altitude 08:31:05 78° 171° (S) 523 3.2 -10.8°
Enters shadow 08:34:03 17° 85° (E) 1,326 4.6 -11.4°
